Flag Weather past 2 weeks in Cluj-Napoca, Romania

Now
48 °F

Sunny.


Feels Like: 45 °F
Forecast: 32 / 52 °F
Wind: 7 mph from East

Location: Cluj Airport-Napoca

Current Time: Oct 31, 2014 at 1:00:53 PM

Latest Report: Oct 31, 2014 at 12:30 PM


Visibility: 10 mi

Pressure: 30.27 "Hg

Humidity: 66%

Dew point: 37 °F

Location of Cluj-NapocaLocation

Historic Weather in Cluj-Napoca — Graph

°F

Cluj-Napoca temperature yesterday

Maximum temperature yesterday: 57 °F (at 2:00 PM)
Minimum temperature yesterday: 28 °F (at 7:30 AM)
Average temperature yesterday: 42 °F

Past Weeks' High & Low Weather Summary

 TemperatureHumidityPressure
High70 °F (Oct 16, 3:30 PM)100% (Oct 17, 5:00 AM)30.48 "Hg (Oct 17, 5:00 AM)
Low23 °F (Oct 28, 7:30 AM)23% (Oct 27, 2:30 PM)29.47 "Hg (Oct 22, 4:30 PM)
Average47 °F78%30.11 "Hg
* Reported Oct 16 1:00 PM — Oct 31 12:00 Noon, Cluj-Napoca, Weather by CustomWeather, © 2014

Note: Actual official high and low records may vary slightly from our data, if they occured in-between our weather recording intervals... More about our weather records

Advertising

Cluj-Napoca weather history for previous 24 hours

 ConditionsComfort  
Time TempWeatherWind HumidityBarometerVisibility
12:00 PM
Oct 31
46 °FPassing clouds.7 mph71%30.30 "HgN/A
11:30 AM45 °FSunny.7 mph76%30.30 "Hg10 mi
11:00 AM43 °FSunny.7 mph76%30.30 "Hg10 mi
10:30 AM41 °FSunny.5 mph81%30.30 "Hg10 mi
10:00 AM39 °FPassing clouds.5 mph81%30.30 "HgN/A
9:30 AM37 °FPassing clouds.5 mph87%30.30 "HgN/A
9:00 AM36 °FSunny.No wind87%30.30 "Hg10 mi
8:30 AM36 °FSunny.No wind87%30.30 "Hg10 mi
8:00 AM34 °FSunny.No wind87%30.30 "Hg10 mi
7:30 AM32 °FSunny.2 mph93%30.27 "Hg10 mi
7:00 AM34 °FClear.No wind93%30.27 "Hg10 mi
6:30 AM34 °FClear.2 mph87%30.27 "Hg10 mi
6:00 AM34 °FClear.2 mph93%30.27 "Hg10 mi
5:30 AM34 °FClear.No wind93%30.27 "Hg10 mi
4:00 AM36 °FClear.5 mph93%30.27 "Hg10 mi
2:00 AM37 °FClear.2 mph87%30.27 "Hg10 mi
1:00 AM39 °FClear.7 mph81%30.27 "Hg10 mi
12:00 AM39 °FClear.7 mph81%30.27 "Hg10 mi
11:30 PM
Oct 30
41 °FClear.9 mph76%30.27 "Hg10 mi
11:00 PM41 °FClear.7 mph76%30.27 "Hg10 mi
10:30 PM41 °FClear.9 mph76%30.27 "Hg10 mi
10:00 PM43 °FClear.9 mph71%30.27 "Hg10 mi
9:30 PM43 °FClear.9 mph76%30.27 "Hg10 mi
9:00 PM41 °FClear.5 mph76%30.27 "Hg10 mi
8:30 PM43 °FClear.5 mph71%30.24 "Hg10 mi
8:00 PM41 °FClear.No wind76%30.24 "Hg10 mi
7:30 PM45 °FPassing clouds.5 mph66%30.24 "HgN/A
7:00 PM45 °FClear.7 mph71%30.24 "Hg10 mi
6:30 PM48 °FPassing clouds.5 mph62%30.24 "HgN/A
6:00 PM48 °FPassing clouds.5 mph62%30.21 "HgN/A
5:30 PM50 °FClear.2 mph58%30.21 "Hg10 mi
5:00 PM52 °FPassing clouds.7 mph54%30.21 "HgN/A
4:30 PM54 °FSunny.7 mph54%30.21 "Hg10 mi
4:00 PM54 °FSunny.7 mph54%30.21 "Hg10 mi
3:30 PM55 °FPassing clouds.12 mph47%30.18 "HgN/A
3:00 PM57 °FSunny.9 mph44%30.18 "Hg10 mi
2:30 PM57 °FPassing clouds.7 mph44%30.18 "HgN/A
2:00 PM57 °FPassing clouds.5 mph44%30.18 "HgN/A
1:30 PM55 °FSunny.7 mph44%30.21 "Hg10 mi
1:00 PM55 °FPassing clouds.7 mph44%30.21 "HgN/A
Weather by CustomWeather, © 2014

See weather overviewHow to use our weather pages